User: anonymous   Login
Location: Unspecified
(0.0000°N, 0.0000°E)
Time: 19:25:03
(UTC+00:00)
Language:

STARLINK-1856 - Orbit

View from above orbital plane
View from above orbital plane
View from above satellite
View from above satellite

Ground track
Ground track

The orbit is defined by the following mean orbital elements,

1 47143U          26145.66668980 +.00000000 +00000-0 +44242-3 0 00008
2 47143  53.0456 259.4933 0003147   2.6182  11.8377 15.67117976    00
Epoch (UTC): 25 May 2026 16:00:01
Eccentricity: 0.0003147
inclination: 53.0456°
perigee height: 365 km
apogee height: 369 km
right ascension of ascending node: 259.4933°
argument of perigee: 2.6182°
revolutions per day: 15.67117976
mean anomaly at epoch: 11.8377°

The dashed part of the orbit path shows where the satellite is in the earth's shadow,  

DLR